#timestamp,LO_Frequency,Hit,StdDev 
1510484415.6,286047008.6,Y
1510484435.4,286046999.4,P
1510484455.3,286046999.4,N
1510484475.1,286046996.4,N
1510484495.8,286046993.5,N
1510484515.7,286046993.7,N
1510484535.5,286046992.3,N
1510484555.3,286046992.4,N
1510484575.2,286046992.6,N
1510484595.9,286046991.8,N
1510484615.7,286046994.1,N
1510484635.5,286046991.0,N
1510484655.4,286046990.2,N
1510484675.2,286046990.3,N
1510484695.0,286046989.4,N
1510484695.9,286046989.4,N
1510484715.8,286046991.0,N
1510484735.6,286046993.2,N
1510484755.4,286046990.7,N
1510484775.3,286046996.2,N
1510484795.1,286046997.2,N
1510484796.0,286046997.2,N
1510484815.8,286046996.4,N
1510484835.7,286046995.4,N
1510484855.5,286046993.3,N
1510484875.3,286046995.3,N
1510484895.2,286046993.8,N
1510484915.9,286046996.2,N
1510484935.7,286046992.4,N
1510484955.5,286046991.8,N
1510484975.4,286046994.0,N
1510484995.2,286046994.8,N
1510485015.0,286046994.4,N
1510485015.9,286046994.4,N
1510485035.8,286046991.7,Y
1510485055.6,286047000.1,P
1510485075.4,286047001.5,N
1510485095.3,286047007.3,N
1510485115.1,286047006.9,N
1510485135.8,286047006.0,N
1510485155.7,286047003.1,N
1510485175.5,286047002.9,N
1510485195.3,286047004.0,N
1510485215.2,286047001.5,N
1510485235.9,286046999.7,N
1510485255.7,286046999.8,N
1510485275.6,286047001.6,N
1510485295.4,286047000.1,N
1510485315.2,286047000.4,N
1510485335.0,286046998.8,N
1510485336.0,286046998.8,N
1510485355.8,286046997.6,N
1510485375.6,286046997.6,N
1510485395.4,286046995.1,N
1510485415.3,286046995.4,N
1510485435.1,286046997.8,N
1510485455.8,286046997.5,N
1510485475.7,286046998.1,N
1510485495.5,286046997.5,N
1510485515.3,286046994.3,N
1510485535.2,286046995.1,N
1510485555.9,286046995.3,N
1510485575.7,286046996.9,N
1510485595.6,286046999.4,N
1510485615.4,286046998.7,N
1510485635.2,286047002.7,N
1510485655.0,286047003.3,N
1510485656.0,286047003.3,N
1510485675.8,286047002.6,N
1510485695.6,286047002.6,N
1510485715.4,286046998.9,N
1510485735.3,286047000.8,N
1510485755.1,286047000.5,N
1510485775.8,286047002.6,N
1510485795.7,286047000.4,N
1510485815.5,286047000.2,N
1510485835.3,286047000.6,N
1510485855.2,286046999.7,N
1510485875.9,286046998.4,N
1510485895.7,286046998.7,N
1510485915.6,286046997.9,N
1510485935.4,286046997.8,N
1510485955.2,286046997.4,N
1510485975.1,286046999.2,N
1510485976.0,286046999.2,N
1510485995.8,286046999.6,N
1510486015.6,286046995.8,N
1510486035.5,286046991.8,Y
1510486055.3,286046994.7,P
1510486075.1,286046990.3,P
1510486095.8,286046992.6,N
1510486115.7,286046992.1,N
1510486135.5,286046990.9,N
1510486155.3,286046988.6,Y
1510486175.2,286047001.0,P
1510486195.0,286046999.9,N
1510486195.9,286046999.9,N
1510486215.7,286047000.1,N
1510486235.6,286046999.2,N
1510486255.4,286046999.1,N
1510486275.2,286047000.8,N
1510486295.1,286047001.0,N
1510486296.0,286047001.0,N
1510486315.8,286046998.1,N
1510486335.6,286046995.5,N
1510486355.5,286046995.1,N
1510486375.3,286046995.4,N
1510486395.1,286046994.3,N
1510486415.9,286046993.7,N
1510486435.7,286046993.5,N
1510486455.5,286046996.0,N
1510486475.4,286046992.5,N
1510486495.2,286046994.3,N
1510486515.0,286046990.6,Y
1510486515.9,286046990.6,P
1510486535.8,286046995.3,N
1510486555.6,286046994.4,N
1510486575.4,286046994.0,N
1510486595.2,286046994.5,N
1510486615.1,286046994.5,N
1510486616.0,286046994.5,Y
1510486635.8,286046999.2,P
1510486655.7,286047000.4,N
1510486675.5,286046999.1,N
1510486695.3,286046998.9,N
1510486715.1,286047000.4,N
1510486735.9,286046999.2,N
1510486755.7,286046998.8,N
1510486775.5,286046999.2,N
1510486795.4,286046996.2,N
1510486815.2,286046991.9,Y
1510486835.0,286046997.7,P
1510486835.9,286046997.7,P
1510486855.8,286047004.7,P
1510486875.6,286047008.7,N
1510486895.4,286047006.2,N
1510486915.3,286047009.1,N
1510486935.1,286047006.4,N
1510486936.0,286047006.4,N
1510486955.8,286047003.6,N
1510486975.7,286047000.8,N
1510486995.5,286047001.1,N
1510487015.3,286046998.9,N
1510487035.2,286047000.9,N
1510487055.9,286047000.8,N
1510487075.7,286046999.6,N
1510487095.5,286046999.3,N
1510487115.4,286046993.3,N
1510487135.2,286046998.9,N
1510487155.0,286046997.1,N
1510487155.9,286046997.1,N
1510487175.8,286046993.4,N
1510487195.6,286046995.0,N
1510487215.4,286046996.8,N
1510487235.3,286046994.0,N
1510487255.1,286046992.2,N
1510487256.0,286046992.2,N
1510487275.8,286046992.3,N
1510487295.7,286046992.3,N
1510487315.5,286046993.2,N
1510487335.3,286046991.6,N
1510487355.2,286046990.8,N
1510487375.9,286046990.7,N
1510487395.7,286046992.5,N
1510487415.5,286046992.8,N
1510487435.4,286046990.4,N
1510487455.2,286046990.6,N
1510487475.0,286046992.0,N
1510487475.9,286046992.0,N
1510487495.8,286046987.9,Y
1510487515.6,286046991.4,P
1510487535.4,286046990.7,P
1510487555.3,286046990.1,P
1510487575.1,286046994.7,N
1510487595.8,286046991.8,Y
1510487615.7,286047001.0,P
1510487635.5,286046998.8,N
1510487655.3,286047002.6,N
1510487675.2,286047003.7,N
1510487695.9,286047003.0,N
1510487715.7,286047003.8,N
1510487735.6,286046999.7,N
1510487755.4,286047004.2,N
1510487775.2,286047005.9,N
1510487795.1,286047001.9,N
1510487796.0,286047001.9,N
1510487815.8,286046999.7,N
1510487835.6,286047003.3,N
1510487855.4,286047003.7,N
1510487875.3,286047001.7,N
1510487895.1,286047001.8,N
1510487915.8,286047003.9,N
1510487935.7,286047000.5,N
1510487955.5,286046998.6,N
1510487975.3,286047000.5,N
1510487995.2,286047002.3,N
